WB6TTB Weather Reports


Display with metric or nautical units.
time (UTC)temp
F
wind
direction
speed
MPH
gust
MPH
rain 1hr
in
rain 24hr
in
rain mn
in
humidity
%
barometer
mb
20260503233603 57 274 0.0 1.0 0.00 0.00 0.00 82 1012.0
20260503232403 57 283 0.0 3.0 0.00 0.00 0.00 82 1012.1
20260503231803 57 288 0.0 2.0 0.00 0.00 0.00 81 1012.0
20260503231203 57 302 0.0 2.0 0.00 0.00 0.00 81 1011.9
20260503230003 57 297 0.0 3.0 0.00 0.00 0.00 80 1012.0
20260503225404 57 297 0.0 3.0 0.00 0.00 0.00 82 1011.9
20260503224804 58 308 0.0 1.0 0.00 0.00 0.00 81 1012.0
20260503224204 58 0 0.0 0.0 0.00 0.00 0.00 82 1012.0
20260503223604 58 0 0.0 0.0 0.00 0.00 0.00 82 1012.1
20260503223004 58 306 0.0 1.0 0.00 0.00 0.00 82 1012.2
20260503221804 58 302 0.0 1.0 0.00 0.00 0.00 80 1012.3
20260503221204 59 292 0.0 1.0 0.00 0.00 0.00 80 1012.2
20260503220603 59 292 0.0 1.0 0.00 0.00 0.00 80 1012.3
20260503220004 60 0 0.0 0.0 0.00 0.00 0.00 80 1012.3
20260503215403 60 274 0.0 1.0 0.00 0.00 0.00 79 1012.2
20260503214803 60 296 0.0 3.0 0.00 0.00 0.00 77 1012.2
20260503214203 60 298 0.0 3.0 0.00 0.00 0.00 78 1012.0
20260503213603 60 297 0.0 3.0 0.00 0.00 0.00 78 1012.1
20260503213003 60 289 0.0 2.0 0.00 0.00 0.00 77 1012.1
20260503212403 60 283 0.0 3.0 0.00 0.00 0.00 76 1012.1
20260503211803 60 292 0.0 1.0 0.00 0.00 0.00 78 1012.1
20260503211203 59 294 0.0 1.0 0.00 0.00 0.00 79 1012.2
20260503210603 59 293 0.0 2.0 0.00 0.00 0.00 79 1012.3
20260503210003 60 287 0.0 2.0 0.00 0.00 0.00 77 1012.3
20260503204803 59 295 0.0 1.0 0.00 0.00 0.00 79 1012.2
20260503204203 59 289 0.0 1.0 0.00 0.00 0.00 79 1012.2
20260503203603 59 288 0.0 1.0 0.00 0.00 0.00 80 1012.2
20260503202404 59 0 0.0 1.0 0.00 0.00 0.00 80 1012.2
20260503131204 52 0 0.0 0.0 0.00 0.00 0.00 90 1010.1
20260503110603 52 0 0.0 0.0 0.00 0.00 0.00 92 1010.1
20260503081204 52 0 0.0 0.0 0.00 0.00 0.00 92 1010.9
20260503072403 52 0 0.0 0.0 0.00 0.00 0.00 92 1010.9
20260503071803 52 0 0.0 0.0 0.00 0.00 0.00 92 1010.9
20260503053004 52 0 0.0 0.0 0.00 0.00 0.00 91 1011.4
20260503052403 52 0 0.0 0.0 0.00 0.00 0.00 91 1011.4
20260503051203 52 0 0.0 0.0 0.00 0.00 0.00 91 1011.4
20260503050604 52 0 0.0 0.0 0.00 0.00 0.00 91 1011.5
20260503050003 52 0 0.0 0.0 0.00 0.00 0.00 91 1011.4
20260503045403 52 0 0.0 0.0 0.00 0.00 0.00 91 1011.4
20260503044803 52 0 0.0 0.0 0.00 0.00 0.00 91 1011.4
20260503044203 52 0 0.0 0.0 0.00 0.00 0.00 92 1011.3
20260503043603 52 0 0.0 0.0 0.00 0.00 0.00 91 1011.3
20260503043003 52 0 0.0 0.0 0.00 0.00 0.00 91 1011.3
20260503041203 52 0 0.0 0.0 0.00 0.00 0.00 91 1011.2
20260503040603 52 0 0.0 0.0 0.00 0.00 0.00 91 1011.2
20260503034804 53 0 0.0 0.0 0.00 0.00 0.00 91 1011.1
20260503034204 53 0 0.0 0.0 0.00 0.00 0.00 91 1011.0
20260503033004 53 0 0.0 0.0 0.00 0.00 0.00 91 1010.8
20260503032404 53 0 0.0 0.0 0.00 0.00 0.00 91 1010.7
20260503031804 53 0 0.0 0.0 0.00 0.00 0.00 91 1010.6
20260503031204 53 0 0.0 0.0 0.00 0.00 0.00 91 1010.5
20260503030004 53 0 0.0 0.0 0.00 0.00 0.00 91 1010.4
20260503025403 53 0 0.0 0.0 0.00 0.00 0.00 91 1010.4
20260503024803 53 0 0.0 0.0 0.00 0.00 0.00 91 1010.4
20260503024203 53 284 0.0 1.0 0.00 0.00 0.00 91 1010.5
20260503023603 53 284 0.0 1.0 0.00 0.00 0.00 91 1010.5
20260503023003 53 0 0.0 0.0 0.00 0.00 0.00 90 1010.5
20260503022403 53 0 0.0 0.0 0.00 0.00 0.00 90 1010.4
20260503021803 53 0 0.0 0.0 0.00 0.00 0.00 90 1010.5
20260503020603 53 290 0.0 1.0 0.00 0.00 0.00 90 1010.5
20260503015403 53 0 0.0 1.0 0.00 0.00 0.00 89 1010.5
20260503014803 54 289 0.0 1.0 0.00 0.00 0.00 88 1010.6
20260503014204 54 287 0.0 1.0 0.00 0.00 0.00 88 1010.6
20260503013604 54 292 0.0 1.0 0.00 0.00 0.00 89 1010.6
20260503013004 54 292 0.0 1.0 0.00 0.00 0.00 88 1010.6
20260503012403 54 289 0.0 1.0 0.00 0.00 0.00 88 1010.7
20260503011804 54 286 0.0 1.0 0.00 0.00 0.00 88 1010.8
20260503011204 55 289 0.0 1.0 0.00 0.00 0.00 87 1010.7
20260503010603 55 282 0.0 2.0 0.00 0.00 0.00 87 1010.7
20260503005403 55 286 0.0 3.0 0.00 0.00 0.00 87 1010.8
20260503004803 55 287 0.0 3.0 0.00 0.00 0.00 87 1010.8
20260503004204 55 285 0.0 2.0 0.00 0.00 0.00 86 1010.8
20260503003603 55 292 0.0 1.0 0.00 0.00 0.00 85 1010.8
20260503003003 55 296 0.0 1.0 0.00 0.00 0.00 86 1010.9
20260503002403 55 301 0.0 1.0 0.00 0.00 0.00 85 1010.8
20260503001803 56 302 0.0 6.0 0.00 0.00 0.00 84 1010.8
20260503001203 56 301 0.0 6.0 0.00 0.00 0.00 84 1010.9
20260503000603 56 300 0.0 4.0 0.00 0.00 0.00 83 1010.9
20260503000003 56 290 0.0 2.0 0.00 0.00 0.00 83 1011.0
20260502234803 56 308 0.0 3.0 0.00 0.00 0.00 84 1011.1